• In Uzbekistan
  • List of Countries
  • For 7 days
  • Water Temperature
  • Satellite Maps
  • Weather Map
  • Weather Widgets
  • user-avatar
    Login

    Hourly Weather Santiago del Estero

    Today, 26 April, Wednesday

    Time Temperature Precipitation Wind Pressure Humidity
    00:00 +15°C° 0 mm 2 mps 744 mmHg 77%
    01:00 +15°C° 0 mm 1 mps 745 mmHg 78%
    02:00 +14°C° 0 mm 1 mps 745 mmHg 79%
    03:00 +14°C° 0 mm 1 mps 745 mmHg 80%
    04:00 +13°C° 0 mm 1 mps 746 mmHg 80%
    05:00 +13°C° 0 mm 1 mps 746 mmHg 80%
    06:00 +14°C° 0 mm 1 mps 747 mmHg 75%
    07:00 +15°C° 0 mm 1 mps 747 mmHg 69%
    08:00 +16°C° 0 mm 1 mps 748 mmHg 64%
    09:00 +19°C° 0 mm 1 mps 748 mmHg 56%
    10:00 +19°C° 0 mm 2 mps 748 mmHg 47%
    11:00 +21°C° 0 mm 2 mps 748 mmHg 39%
    12:00 +23°C° 0 mm 2 mps 748 mmHg 36%
    13:00 +23°C° 0 mm 2 mps 747 mmHg 33%
    14:00 +24°C° 0 mm 2 mps 747 mmHg 30%
    15:00 +24°C° 0 mm 2 mps 747 mmHg 32%
    16:00 +23°C° 0 mm 2 mps 747 mmHg 33%
    17:00 +23°C° 0 mm 2 mps 747 mmHg 35%
    18:00 +21°C° 0 mm 1 mps 747 mmHg 39%
    19:00 +19°C° 0 mm 1 mps 747 mmHg 43%
    20:00 +15°C° 0 mm 1 mps 748 mmHg 47%
    21:00 +15°C° 0 mm 1 mps 748 mmHg 48%
    22:00 +14°C° 0 mm 2 mps 748 mmHg 49%
    23:00 +14°C° 0 mm 2 mps 749 mmHg 50%

    Tomorrow, 27 April, Thursday

    Time Temperature Precipitation Wind Pressure Humidity
    00:00 +14°C° 0 mm 2 mps 749 mmHg 52%
    01:00 +13°C° 0 mm 2 mps 748 mmHg 55%
    02:00 +13°C° 0 mm 2 mps 748 mmHg 57%
    03:00 +12°C° 0 mm 2 mps 748 mmHg 58%
    04:00 +12°C° 0 mm 1 mps 748 mmHg 59%
    05:00 +12°C° 0 mm 1 mps 748 mmHg 61%
    06:00 +13°C° 0 mm 2 mps 748 mmHg 58%
    07:00 +14°C° 0 mm 2 mps 748 mmHg 55%
    08:00 +15°C° 0 mm 2 mps 749 mmHg 51%
    09:00 +17°C° 0 mm 3 mps 749 mmHg 45%
    10:00 +20°C° 0 mm 4 mps 749 mmHg 39%
    11:00 +23°C° 0 mm 5 mps 749 mmHg 32%
    12:00 +25°C° 0 mm 5 mps 748 mmHg 31%
    13:00 +24°C° 0 mm 6 mps 747 mmHg 30%
    14:00 +26°C° 0 mm 6 mps 746 mmHg 28%
    15:00 +26°C° 0 mm 5 mps 746 mmHg 30%
    16:00 +25°C° 0 mm 5 mps 745 mmHg 32%
    17:00 +23°C° 0 mm 4 mps 745 mmHg 35%
    18:00 +21°C° 0 mm 4 mps 745 mmHg 38%
    19:00 +19°C° 0 mm 4 mps 745 mmHg 40%
    20:00 +17°C° 0 mm 4 mps 745 mmHg 43%
    21:00 +17°C° 0 mm 4 mps 745 mmHg 45%
    22:00 +15°C° 0 mm 4 mps 746 mmHg 47%
    23:00 +15°C° 0 mm 4 mps 746 mmHg 48%

    Day after tomorrow, 28 April, Friday

    Time Temperature Precipitation Wind Pressure Humidity
    00:00 +14°C° 0 mm 4 mps 746 mmHg 51%
    01:00 +14°C° 0 mm 4 mps 745 mmHg 53%
    02:00 +13°C° 0 mm 4 mps 745 mmHg 56%
    03:00 +13°C° 0 mm 3 mps 745 mmHg 58%
    04:00 +12°C° 0 mm 3 mps 746 mmHg 61%
    05:00 +12°C° 0 mm 3 mps 746 mmHg 63%
    06:00 +12°C° 0 mm 3 mps 746 mmHg 61%
    07:00 +13°C° 0 mm 4 mps 747 mmHg 59%
    08:00 +13°C° 0 mm 4 mps 748 mmHg 58%
    09:00 +17°C° 0 mm 4 mps 748 mmHg 50%
    10:00 +20°C° 0 mm 5 mps 748 mmHg 43%
    11:00 +23°C° 0 mm 5 mps 749 mmHg 35%
    12:00 +25°C° 0 mm 5 mps 748 mmHg 33%
    13:00 +26°C° 0 mm 5 mps 748 mmHg 30%
    14:00 +27°C° 0 mm 5 mps 747 mmHg 28%
    15:00 +27°C° 0 mm 4 mps 747 mmHg 30%
    16:00 +26°C° 0 mm 4 mps 747 mmHg 33%
    17:00 +25°C° 0 mm 3 mps 746 mmHg 35%
    18:00 +22°C° 0 mm 3 mps 747 mmHg 39%
    19:00 +20°C° 0 mm 3 mps 747 mmHg 42%
    20:00 +18°C° 0 mm 3 mps 748 mmHg 46%
    21:00 +17°C° 0 mm 3 mps 748 mmHg 48%
    22:00 +17°C° 0 mm 3 mps 748 mmHg 51%
    23:00 +16°C° 0 mm 3 mps 748 mmHg 53%

    29 April, Saturday

    Time Temperature Precipitation Wind Pressure Humidity
    00:00 +14°C° 0 mm 3 mps 748 mmHg 55%
    01:00 +14°C° 0 mm 3 mps 748 mmHg 57%
    02:00 +13°C° 0 mm 3 mps 747 mmHg 60%
    03:00 +13°C° 0 mm 3 mps 747 mmHg 61%
    04:00 +13°C° 0 mm 3 mps 747 mmHg 63%
    05:00 +12°C° 0 mm 3 mps 747 mmHg 65%
    06:00 +13°C° 0 mm 3 mps 748 mmHg 63%
    07:00 +13°C° 0 mm 3 mps 748 mmHg 61%
    08:00 +14°C° 0 mm 3 mps 748 mmHg 59%
    09:00 +18°C° 0 mm 4 mps 748 mmHg 51%
    10:00 +21°C° 0 mm 4 mps 748 mmHg 44%
    11:00 +23°C° 0 mm 5 mps 749 mmHg 36%
    12:00 +26°C° 0 mm 5 mps 748 mmHg 34%
    13:00 +27°C° 0 mm 5 mps 747 mmHg 31%
    14:00 +28°C° 0 mm 5 mps 746 mmHg 28%
    15:00 +27°C° 0 mm 5 mps 746 mmHg 30%
    16:00 +27°C° 0 mm 4 mps 746 mmHg 33%
    17:00 +26°C° 0 mm 4 mps 746 mmHg 35%
    18:00 +24°C° 0 mm 3 mps 746 mmHg 38%
    19:00 +21°C° 0 mm 3 mps 746 mmHg 42%
    20:00 +19°C° 0 mm 3 mps 747 mmHg 45%
    21:00 +18°C° 0 mm 3 mps 747 mmHg 47%
    22:00 +17°C° 0 mm 3 mps 747 mmHg 49%
    23:00 +17°C° 0 mm 3 mps 747 mmHg 51%

    30 April, Sunday

    Time Temperature Precipitation Wind Pressure Humidity
    00:00 +16°C° 0 mm 3 mps 747 mmHg 53%
    01:00 +16°C° 0 mm 3 mps 746 mmHg 56%
    02:00 +14°C° 0 mm 3 mps 746 mmHg 58%
    03:00 +14°C° 0 mm 3 mps 746 mmHg 60%
    04:00 +13°C° 0 mm 3 mps 746 mmHg 62%
    05:00 +13°C° 0 mm 3 mps 746 mmHg 64%
    06:00 +14°C° 0 mm 3 mps 746 mmHg 62%
    07:00 +14°C° 0 mm 3 mps 747 mmHg 61%
    08:00 +15°C° 0 mm 4 mps 747 mmHg 59%
    09:00 +19°C° 0 mm 4 mps 747 mmHg 51%
    10:00 +21°C° 0 mm 4 mps 747 mmHg 44%
    11:00 +25°C° 0 mm 4 mps 747 mmHg 36%
    12:00 +26°C° 0 mm 5 mps 746 mmHg 33%
    13:00 +28°C° 0 mm 5 mps 745 mmHg 30%
    14:00 +29°C° 0 mm 5 mps 744 mmHg 27%
    15:00 +28°C° 0 mm 4 mps 744 mmHg 29%
    16:00 +27°C° 0 mm 4 mps 744 mmHg 31%
    17:00 +26°C° 0 mm 3 mps 744 mmHg 33%
    18:00 +24°C° 0 mm 3 mps 744 mmHg 37%
    19:00 +21°C° 0 mm 3 mps 745 mmHg 41%
    20:00 +19°C° 0 mm 3 mps 745 mmHg 45%
    21:00 +19°C° 0 mm 3 mps 745 mmHg 48%
    22:00 +18°C° 0 mm 3 mps 745 mmHg 52%
    23:00 +17°C° 0 mm 3 mps 745 mmHg 55%

    1 May, Monday

    Time Temperature Precipitation Wind Pressure Humidity
    00:00 +17°C° 0 mm 3 mps 745 mmHg 59%
    01:00 +16°C° 0 mm 3 mps 745 mmHg 63%
    02:00 +16°C° 0 mm 3 mps 745 mmHg 67%
    03:00 +16°C° 0 mm 3 mps 745 mmHg 70%
    04:00 +14°C° 0 mm 3 mps 745 mmHg 74%
    05:00 +14°C° 0 mm 3 mps 745 mmHg 77%
    06:00 +16°C° 0 mm 3 mps 745 mmHg 76%
    07:00 +17°C° 0 mm 3 mps 746 mmHg 74%
    08:00 +17°C° 0 mm 4 mps 746 mmHg 73%
    09:00 +20°C° 0 mm 4 mps 746 mmHg 64%
    10:00 +22°C° 0 mm 4 mps 746 mmHg 56%
    11:00 +26°C° 0 mm 5 mps 746 mmHg 47%
    12:00 +27°C° 0 mm 5 mps 745 mmHg 44%
    13:00 +28°C° 0 mm 5 mps 745 mmHg 42%
    14:00 +30°C° 0 mm 5 mps 744 mmHg 39%
    15:00 +29°C° 0 mm 4 mps 744 mmHg 42%
    16:00 +28°C° 0 mm 4 mps 744 mmHg 45%
    17:00 +28°C° 0 mm 3 mps 743 mmHg 48%
    18:00 +26°C° 0 mm 3 mps 744 mmHg 54%
    19:00 +24°C° 0 mm 3 mps 744 mmHg 60%
    20:00 +21°C° 0 mm 3 mps 745 mmHg 66%
    21:00 +21°C° 0 mm 3 mps 745 mmHg 69%
    22:00 +20°C° 0 mm 3 mps 745 mmHg 72%
    23:00 +19°C° 0 mm 3 mps 745 mmHg 74%
    Show more